Weather History for Tullahoma, TN

Change the Weather History Date:

Monday, February 25, 2013

  Actual Average Record
Temperature  
Mean Temperature 47 °F -  
Max Temperature 59 °F 55 °F 59 °F (2013)
Min Temperature 35 °F 30 °F 33 °F (2014)
Degree Days  
Heating Degree Days 18    
Moisture  
Dew Point 30 °F    
Average Humidity 52    
Maximum Humidity 93    
Minimum Humidity 31    
Precipitation  
Precipitation 0.00 in - - ()
Sea Level Pressure  
Sea Level Pressure 29.86 in    
Wind  
Wind Speed 8 mph (ESE)    
Max Wind Speed 24 mph    
Max Gust Speed 33 mph    
Visibility 10 miles    
Events      
Averages and records for this station are not official NWS values.
T = Trace of Precipitation, MM = Missing Value Source: NWS Daily Summary

Daily Weather History Graph

Daily Weather History Graph

Search for Another Location

Airport:

Trip Planner

Search our weather history database for the weather conditions in past years. The results will help you decide how hot, cold, wet, or windy it might be!

Date:

Astronomy

Feb. 25, 2013 Rise Set
Actual Time 6:19 AM CST 5:37 PM CST
Civil Twilight 5:53 AM CST 6:02 PM CST
Nautical Twilight 5:24 AM CST 6:32 PM CST
Astronomical Twilight 4:54 AM CST 7:01 PM CST
Moon 5:47 PM CST (2/25) 5:50 AM CST (2/25)
Length of Visible Light 12h 08m
Length of Day
11h 17m
Full, 100% of the Moon is Illuminated
Feb 25
Full
Feb 25
Full
Mar 4
Last Quarter
Mar 11
New
Mar 19
First Quarter

Hourly Weather History & Observations

Time (CST) Temp. Windchill Dew Point Humidity Pressure Visibility Wind Dir Wind Speed Gust Speed Precip Events Conditions
12:15 AM 39.2 °F 35.9 °F 21.2 °F 49% 29.98 in 10.0 mi ENE 4.6 mph - N/A   Clear
12:35 AM 39.2 °F 37.0 °F 21.2 °F 49% 29.98 in 10.0 mi NE 3.5 mph - N/A   Clear
12:55 AM 37.4 °F 32.8 °F 21.2 °F 52% 29.97 in 10.0 mi ENE 5.8 mph - N/A   Clear
1:15 AM 37.4 °F 34.9 °F 21.2 °F 52% 29.98 in 10.0 mi ESE 3.5 mph - N/A   Clear
1:35 AM 37.4 °F 34.9 °F 21.2 °F 52% 29.98 in 10.0 mi ENE 3.5 mph - N/A   Clear
1:55 AM 35.6 °F 32.8 °F 23.0 °F 60% 29.98 in 10.0 mi NE 3.5 mph - N/A   Clear
2:15 AM 37.4 °F 33.8 °F 21.2 °F 52% 29.98 in 10.0 mi ENE 4.6 mph - N/A   Clear
2:35 AM 37.4 °F 32.8 °F 21.2 °F 52% 29.97 in 10.0 mi ENE 5.8 mph - N/A   Clear
2:55 AM 37.4 °F 33.8 °F 21.2 °F 52% 29.97 in 10.0 mi NE 4.6 mph - N/A   Clear
3:15 AM 37.4 °F 32.8 °F 21.2 °F 52% 29.95 in 10.0 mi NE 5.8 mph - N/A   Clear
3:35 AM 37.4 °F 33.8 °F 21.2 °F 52% 29.95 in 10.0 mi NE 4.6 mph - N/A   Clear
3:55 AM 37.4 °F 33.8 °F 21.2 °F 52% 29.95 in 10.0 mi ENE 4.6 mph - N/A   Clear
4:15 AM 37.4 °F 32.8 °F 21.2 °F 52% 29.93 in 10.0 mi ENE 5.8 mph - N/A   Clear
4:35 AM 37.4 °F 32.1 °F 21.2 °F 52% 29.95 in 10.0 mi ENE 6.9 mph - N/A   Clear
4:55 AM 37.4 °F 32.8 °F 21.2 °F 52% 29.94 in 10.0 mi NE 5.8 mph - N/A   Clear
5:15 AM 37.4 °F - 21.2 °F 52% 29.95 in 10.0 mi Calm Calm - N/A   Clear
5:35 AM 37.4 °F 33.8 °F 21.2 °F 52% 29.96 in 10.0 mi ENE 4.6 mph - N/A   Clear
5:55 AM 37.4 °F 32.1 °F 21.2 °F 52% 29.96 in 10.0 mi ENE 6.9 mph - N/A   Clear
6:15 AM 37.4 °F 32.8 °F 21.2 °F 52% 29.96 in 10.0 mi ENE 5.8 mph - N/A   Clear
6:35 AM 37.4 °F 33.8 °F 21.2 °F 52% 29.96 in 10.0 mi East 4.6 mph - N/A   Clear
6:55 AM 35.6 °F 30.7 °F 21.2 °F 56% 29.97 in 10.0 mi East 5.8 mph - N/A   Clear
7:15 AM 37.4 °F 33.8 °F 23.0 °F 56% 29.97 in 10.0 mi ENE 4.6 mph - N/A   Clear
7:35 AM 37.4 °F 33.8 °F 23.0 °F 56% 29.97 in 10.0 mi NE 4.6 mph - N/A   Clear
7:55 AM 37.4 °F 33.8 °F 23.0 °F 56% 29.96 in 10.0 mi NE 4.6 mph - N/A   Clear
8:15 AM 39.2 °F 35.9 °F 24.8 °F 56% 29.96 in 10.0 mi East 4.6 mph - N/A   Clear
8:35 AM 39.2 °F 35.0 °F 24.8 °F 56% 29.96 in 10.0 mi East 5.8 mph - N/A   Clear
8:55 AM 42.8 °F 40.1 °F 24.8 °F 49% 29.96 in 10.0 mi East 4.6 mph - N/A   Clear
9:15 AM 44.6 °F 41.4 °F 24.8 °F 46% 29.95 in 10.0 mi East 5.8 mph - N/A   Clear
9:35 AM 46.4 °F 42.9 °F 24.8 °F 43% 29.95 in 10.0 mi East 6.9 mph - N/A   Clear
9:55 AM 48.2 °F - 24.8 °F 40% 29.95 in 10.0 mi SE 8.1 mph - N/A   Clear
10:15 AM 51.8 °F - 24.8 °F 35% 29.94 in 10.0 mi SE 12.7 mph - N/A   Clear
10:35 AM 53.6 °F - 26.6 °F 35% 29.93 in 10.0 mi SE 8.1 mph - N/A   Clear
10:55 AM 55.4 °F - 26.6 °F 33% 29.92 in 10.0 mi ESE 8.1 mph - N/A   Clear
11:15 AM 57.2 °F - 26.6 °F 31% 29.91 in 10.0 mi ESE 11.5 mph - N/A   Clear
11:35 AM 57.2 °F - 28.4 °F 33% 29.90 in 10.0 mi ESE 12.7 mph - N/A   Clear
11:55 AM 59.0 °F - 28.4 °F 31% 29.90 in 10.0 mi SE 11.5 mph - N/A   Clear
12:15 PM 59.0 °F - 28.4 °F 31% 29.89 in 10.0 mi SE 18.4 mph - N/A   Clear
12:35 PM 57.2 °F - 28.4 °F 33% 29.89 in 10.0 mi SE 12.7 mph - N/A   Mostly Cloudy
12:55 PM 57.2 °F - 28.4 °F 33% 29.88 in 10.0 mi SE 13.8 mph - N/A   Overcast
1:15 PM 59.0 °F - 30.2 °F 34% 29.87 in 10.0 mi ESE 15.0 mph - N/A   Mostly Cloudy
1:35 PM 57.2 °F - 30.2 °F 36% 29.87 in 10.0 mi SE 16.1 mph - N/A   Overcast
1:55 PM 55.4 °F - 33.8 °F 44% 29.86 in 10.0 mi SE 10.4 mph - N/A   Overcast
2:15 PM 53.6 °F - 33.8 °F 47% 29.86 in 10.0 mi SE 10.4 mph - N/A   Overcast
2:35 PM 53.6 °F - 33.8 °F 47% 29.84 in 10.0 mi SE 12.7 mph - N/A   Overcast
2:55 PM 53.6 °F - 32.0 °F 44% 29.83 in 10.0 mi SE 12.7 mph - N/A   Mostly Cloudy
3:15 PM 53.6 °F - 32.0 °F 44% 29.82 in 10.0 mi ESE 10.4 mph - N/A   Overcast
3:35 PM 53.6 °F - 33.8 °F 47% 29.80 in 10.0 mi ESE 10.4 mph - N/A   Overcast
3:55 PM 55.4 °F - 33.8 °F 44% 29.79 in 10.0 mi East 12.7 mph - N/A   Mostly Cloudy
4:15 PM 55.4 °F - 35.6 °F 47% 29.77 in 10.0 mi ESE 11.5 mph - N/A   Partly Cloudy
4:35 PM 55.4 °F - 35.6 °F 47% 29.76 in 10.0 mi SE 11.5 mph - N/A   Clear
4:55 PM 55.4 °F - 37.4 °F 51% 29.77 in 10.0 mi SE 9.2 mph - N/A   Clear
5:15 PM 53.6 °F - 37.4 °F 54% 29.76 in 10.0 mi SSE 8.1 mph - N/A   Scattered Clouds
5:35 PM 53.6 °F - 37.4 °F 54% 29.77 in 10.0 mi SSE 6.9 mph - N/A   Mostly Cloudy
5:55 PM 53.6 °F - 37.4 °F 54% 29.78 in 10.0 mi SE 10.4 mph - N/A   Mostly Cloudy
6:15 PM 53.6 °F - 35.6 °F 51% 29.77 in 10.0 mi SE 12.7 mph - N/A   Overcast
6:35 PM 53.6 °F - 35.6 °F 51% 29.78 in 10.0 mi SE 10.4 mph - N/A   Overcast
6:55 PM 51.8 °F - 35.6 °F 54% 29.76 in 10.0 mi SE 8.1 mph - N/A   Overcast
7:15 PM 51.8 °F - 35.6 °F 54% 29.75 in 10.0 mi ESE 10.4 mph - N/A   Overcast
7:35 PM 51.8 °F - 35.6 °F 54% 29.75 in 10.0 mi SE 10.4 mph - N/A   Overcast
7:55 PM 51.8 °F - 37.4 °F 58% 29.74 in 10.0 mi SE 15.0 mph - N/A   Overcast
8:15 PM 51.8 °F - 39.2 °F 62% 29.73 in 10.0 mi SE 13.8 mph - N/A   Mostly Cloudy
8:35 PM 51.8 °F - 39.2 °F 62% 29.71 in 10.0 mi SE 15.0 mph 24.2 mph N/A   Mostly Cloudy
8:55 PM 51.8 °F - 41.0 °F 67% 29.70 in 10.0 mi SE 12.7 mph - N/A   Mostly Cloudy
9:15 PM 51.8 °F - 41.0 °F 67% 29.70 in 10.0 mi SE 18.4 mph - N/A   Overcast
9:35 PM 51.8 °F - 41.0 °F 67% 29.71 in 10.0 mi SSE 15.0 mph - N/A   Mostly Cloudy
9:55 PM 51.8 °F - 41.0 °F 67% 29.67 in 10.0 mi SE 17.3 mph - N/A   Overcast
10:15 PM 51.8 °F - 41.0 °F 67% 29.66 in 10.0 mi ESE 16.1 mph - N/A   Overcast
10:35 PM 50.0 °F - 42.8 °F 76% 29.66 in 10.0 mi SE 19.6 mph - N/A   Overcast
10:55 PM 48.2 °F - 42.8 °F 82% 29.63 in 9.0 mi SE 18.4 mph - N/A   Overcast
11:15 PM 46.4 °F 39.5 °F 44.6 °F 93% 29.62 in 10.0 mi SE 17.3 mph - N/A   Overcast
11:35 PM 46.4 °F 38.1 °F 44.6 °F 93% 29.59 in 7.0 mi SE 24.2 mph 33.4 mph N/A   Overcast
11:55 PM 46.4 °F 38.5 °F 44.6 °F 93% 29.56 in 9.0 mi SE 21.9 mph - N/A   Overcast